Weather History for ENGM - October, 2013

Change the Weather History Date:

Thursday, October 3, 2013

  Actual Average Record
Temperature  
Mean Temperature 42 °F -  
Max Temperature 48 °F 44 °F 62 °F (2000)
Min Temperature 37 °F 33 °F 28 °F (1996)
Degree Days  
Heating Degree Days 22    
Moisture  
Dew Point 39 °F    
Average Humidity 86    
Maximum Humidity 100    
Minimum Humidity 71    
Precipitation  
Precipitation 0.00 in 0.13 in - ()
Sea Level Pressure  
Sea Level Pressure 30.35 in    
Wind  
Wind Speed 5 mph ()    
Max Wind Speed 14 mph    
Max Gust Speed -    
Visibility 6.2 miles    
Events Fog    
Averages and records for this station are not official NWS values.
T = Trace of Precipitation, MM = Missing Value Source: Averaged Metar Reports

Daily Weather History Graph

Daily Weather History Graph

Search for Another Location

Airport or City:

Trip Planner

Search our weather history database for the weather conditions in past years. The results will help you decide how hot, cold, wet, or windy it might be!

Date:

Astronomy

Oct. 03, 2013 Rise Set
Actual Time 7:26 AM CEST 6:41 PM CEST
Civil Twilight 6:44 AM CEST 7:23 PM CEST
Nautical Twilight 5:55 AM CEST 8:12 PM CEST
Astronomical Twilight 5:04 AM CEST 9:02 PM CEST
Moon 5:25 AM CEST (10/3) 5:50 PM CEST (10/3)
Length of Visible Light 12h 38m
Length of Day
11h 15m
Waning Crescent, 3% of the Moon is Illuminated
Oct 3
Waning Crescent
Oct 5
New
Oct 12
First Quarter
Oct 19
Full
Oct 27
Last Quarter

Hourly Weather History & Observations

Time (CEST) Temp. Windchill Dew Point Humidity Pressure Visibility Wind Dir Wind Speed Gust Speed Precip Events Conditions
12:20 AM 39.2 °F 37.0 °F 35.6 °F 87% 30.36 in 6.2 mi South 3.5 mph - N/A   Mostly Cloudy
12:50 AM 39.2 °F 35.0 °F 37.4 °F 93% 30.36 in 6.2 mi South 5.8 mph - N/A   Mostly Cloudy
1:20 AM 39.2 °F 35.9 °F 35.6 °F 87% 30.36 in 6.2 mi SW 4.6 mph - N/A   Scattered Clouds
2:00 AM 42 °F - 40 °F 89%  in 47 mi South 6.7 mph - -   Partly Cloudy
2:20 AM 39.2 °F 37.0 °F 39.2 °F 100% 30.39 in 6.2 mi SSW 3.5 mph - N/A   Mostly Cloudy
2:50 AM 39.2 °F 35.0 °F 37.4 °F 93% 30.36 in 6.2 mi South 5.8 mph - N/A   Partly Cloudy
3:20 AM 37.4 °F 34.9 °F 35.6 °F 93% 30.36 in 6.2 mi South 3.5 mph - N/A   Partly Cloudy
3:50 AM 39.2 °F 37.0 °F 37.4 °F 93% 30.36 in - South 3.5 mph - N/A   Clear
4:20 AM 37.4 °F - 35.6 °F 93% 30.36 in - Variable 2.3 mph - N/A   Clear
4:50 AM 37.4 °F - 35.6 °F 93% 30.36 in 6.2 mi Variable 1.2 mph - N/A   Scattered Clouds
5:20 AM 39.2 °F - 37.4 °F 93% 30.36 in 6.2 mi Calm Calm - N/A   Mostly Cloudy
5:50 AM 37.4 °F - 37.4 °F 100% 30.36 in 6.2 mi Calm Calm - N/A   Mostly Cloudy
6:20 AM 39.2 °F 35.0 °F 37.4 °F 93% 30.36 in 6.2 mi SSW 5.8 mph - N/A   Overcast
6:50 AM 39.2 °F - 39.2 °F 100% 30.36 in 6.2 mi Calm Calm - N/A   Mostly Cloudy
7:20 AM 39.2 °F - 37.4 °F 93% 30.36 in 6.2 mi Calm Calm - N/A Fog Mostly Cloudy
7:50 AM 39.2 °F 37.0 °F 37.4 °F 93% 30.36 in 6.2 mi SSW 3.5 mph - N/A Fog Mostly Cloudy
8:00 AM 39 °F - 38 °F 93%  in 6 mi SSE 4.5 mph - - Fog Light Fog
8:20 AM 39.2 °F - 37.4 °F 93% 30.36 in 6.2 mi Variable 1.2 mph - N/A Fog Mostly Cloudy
8:50 AM 41.0 °F 37.1 °F 39.2 °F 93% 30.36 in 6.2 mi South 5.8 mph - N/A Fog Mostly Cloudy
9:20 AM 41.0 °F 36.4 °F 39.2 °F 93% 30.36 in 6.2 mi South 6.9 mph - N/A Fog Mostly Cloudy
9:50 AM 42.8 °F 39.3 °F 39.2 °F 87% 30.36 in 6.2 mi South 5.8 mph - N/A Fog Mostly Cloudy
10:20 AM 42.8 °F 38.6 °F 39.2 °F 87% 30.36 in 6.2 mi South 6.9 mph - N/A   Mostly Cloudy
10:50 AM 42.8 °F 38.6 °F 41.0 °F 93% 30.36 in 6.2 mi South 6.9 mph - N/A   Mostly Cloudy
11:20 AM 42.8 °F 38.6 °F 41.0 °F 93% 30.36 in 6.2 mi South 6.9 mph - N/A   Mostly Cloudy
11:50 AM 44.6 °F 39.7 °F 41.0 °F 87% 30.36 in 6.2 mi South 9.2 mph - N/A   Mostly Cloudy
12:20 PM 44.6 °F 40.2 °F 41.0 °F 87% 30.36 in 6.2 mi South 8.1 mph - N/A   Mostly Cloudy
12:50 PM 44.6 °F 39.7 °F 41.0 °F 87% 30.36 in 6.2 mi South 9.2 mph - N/A   Mostly Cloudy
1:20 PM 46.4 °F 41.5 °F 41.0 °F 81% 30.36 in 6.2 mi South 10.4 mph - N/A   Mostly Cloudy
1:50 PM 46.4 °F 41.9 °F 41.0 °F 81% 30.36 in 6.2 mi South 9.2 mph - N/A   Mostly Cloudy
2:00 PM 47 °F - 41 °F 73%  in 37 mi South 6.7 mph - -   Partly Cloudy
2:20 PM 46.4 °F 41.5 °F 41.0 °F 81% 30.36 in 6.2 mi South 10.4 mph - N/A   Mostly Cloudy
2:50 PM 46.4 °F 40.4 °F 39.2 °F 76% 30.36 in 6.2 mi SSW 13.8 mph - N/A   Mostly Cloudy
3:20 PM 46.4 °F 41.5 °F 39.2 °F 76% 30.36 in 6.2 mi SSW 10.4 mph - N/A   Mostly Cloudy
3:50 PM 46.4 °F 41.1 °F 39.2 °F 76% 30.36 in 6.2 mi SSW 11.5 mph - N/A   Mostly Cloudy
4:20 PM 48.2 °F - 39.2 °F 71% 30.33 in 6.2 mi SSW 10.4 mph - N/A   Mostly Cloudy
4:50 PM 48.2 °F - 39.2 °F 71% 30.33 in 6.2 mi South 10.4 mph - N/A   Mostly Cloudy
5:20 PM 46.4 °F 41.5 °F 39.2 °F 76% 30.33 in 6.2 mi South 10.4 mph - N/A   Mostly Cloudy
5:50 PM 46.4 °F 41.5 °F 39.2 °F 76% 30.30 in 6.2 mi SSW 10.4 mph - N/A   Mostly Cloudy
6:20 PM 46.4 °F 43.5 °F 39.2 °F 76% 30.33 in 6.2 mi SSW 5.8 mph - N/A   Mostly Cloudy
6:50 PM 46.4 °F 43.5 °F 39.2 °F 76% 30.33 in 6.2 mi South 5.8 mph - N/A   Mostly Cloudy
7:20 PM 46.4 °F 42.4 °F 39.2 °F 76% 30.33 in 6.2 mi SSW 8.1 mph - N/A   Mostly Cloudy
7:50 PM 44.6 °F 39.7 °F 39.2 °F 81% 30.33 in 6.2 mi South 9.2 mph - N/A   Mostly Cloudy
8:00 PM 45 °F - 40 °F 75%  in 31 mi South 4.5 mph - -   Partly Cloudy
8:20 PM 42.8 °F 38.6 °F 37.4 °F 81% 30.33 in 6.2 mi South 6.9 mph - N/A   Mostly Cloudy
8:50 PM 42.8 °F 40.1 °F 39.2 °F 87% 30.33 in 6.2 mi South 4.6 mph - N/A   Mostly Cloudy
9:20 PM 42.8 °F 39.3 °F 39.2 °F 87% 30.30 in 6.2 mi South 5.8 mph - N/A   Mostly Cloudy
9:50 PM 42.8 °F 40.1 °F 39.2 °F 87% 30.30 in 6.2 mi South 4.6 mph - N/A   Mostly Cloudy
10:20 PM 44.6 °F 40.7 °F 41.0 °F 87% 30.30 in 6.2 mi South 6.9 mph - N/A   Mostly Cloudy
10:50 PM 44.6 °F 40.2 °F 39.2 °F 81% 30.30 in 6.2 mi South 8.1 mph - N/A   Mostly Cloudy
11:20 PM 44.6 °F 41.4 °F 39.2 °F 81% 30.30 in 6.2 mi South 5.8 mph - N/A   Overcast
11:50 PM 44.6 °F 41.4 °F 39.2 °F 81% 30.30 in 6.2 mi South 5.8 mph - N/A   Overcast